FW3241 Weather Reports


time (UTC)temp
C
wind
direction
speed
KPH
gust
KPH
rain 1hr
cm
rain 24hr
cm
rain mn
cm
humidity
%
barometer
mb
20260504044547 7 34 0.0 1.6 0.00 0.00 0.00 37 1020.3
20260504043044 7 34 0.0 1.6 0.00 0.00 0.00 38 1020.4
20260504041542 7 34 0.0 0.0 0.00 0.00 0.00 40 1020.1
20260504040044 7 34 0.0 0.0 0.00 0.00 0.00 38 1020.2
20260504034538 7 34 0.0 1.6 0.00 0.00 0.00 41 1020.2
20260504033049 7 34 0.0 0.0 0.00 0.00 0.00 41 1020.0
20260504031537 8 34 0.0 1.6 0.00 0.00 0.00 39 1020.3
20260504030036 7 34 0.0 0.0 0.00 0.00 0.00 40 1020.3
20260504024545 8 34 0.0 0.0 0.00 0.00 0.00 42 1020.3
20260504023036 8 34 0.0 0.0 0.00 0.00 0.00 42 1020.5
20260504021541 8 34 0.0 0.0 0.00 0.00 0.00 39 1020.5
20260504020034 8 34 0.0 0.0 0.00 0.00 0.00 35 1020.4
20260504014535 8 34 0.0 0.0 0.00 0.00 0.00 37 1020.1
20260504013043 8 34 0.0 0.0 0.00 0.00 0.00 43 1020.1
20260504011534 9 34 0.0 0.0 0.00 0.00 0.00 40 1020.0
20260504010033 9 34 0.0 0.0 0.00 0.00 0.00 39 1020.0
20260504004542 10 34 0.0 1.6 0.00 0.00 0.00 39 1019.8
20260504003032 10 34 0.0 3.2 0.00 0.00 0.00 43 1019.8
20260504001531 10 34 0.0 3.2 0.00 0.00 0.00 43 1019.7
20260504000030 11 33 1.6 4.8 0.00 0.00 0.00 41 1019.7
20260503234530 12 241 1.6 3.2 0.00 0.00 0.00 39 1019.6
20260503233032 13 240 0.0 3.2 0.00 0.00 0.00 37 1019.6
20260503231529 13 240 0.0 3.2 0.00 0.00 0.00 34 1019.6
20260503230028 14 240 1.6 4.8 0.00 0.00 0.00 24 1019.7
20260503224528 14 240 1.6 6.4 0.00 0.00 0.00 25 1019.6
20260503223027 15 241 1.6 6.4 0.00 0.00 0.00 25 1019.7
20260503221525 15 245 0.0 8.0 0.00 0.00 0.00 22 1019.8
20260503220025 15 252 3.2 6.4 0.00 0.00 0.00 25 1019.8
20260503214524 15 244 1.6 6.4 0.00 0.00 0.00 25 1019.9
20260503213028 15 252 1.6 4.8 0.00 0.00 0.00 26 1020.0
20260503211534 15 276 1.6 11.3 0.00 0.00 0.00 23 1020.1
20260503210021 15 238 3.2 6.4 0.00 0.00 0.00 23 1020.1
20260503204521 15 244 4.8 12.9 0.00 0.00 0.00 26 1020.3
20260503203022 16 237 4.8 9.7 0.00 0.00 0.00 24 1020.3
20260503201517 15 237 1.6 11.3 0.00 0.00 0.00 25 1020.4
20260503200017 15 243 0.0 8.0 0.00 0.00 0.00 27 1020.7
20260503194515 15 242 0.0 11.3 0.00 0.00 0.00 23 1020.7
20260503193030 15 252 3.2 6.4 0.00 0.00 0.00 26 1021.0
20260503191514 15 254 1.6 8.0 0.00 0.00 0.00 25 1021.1
20260503190020 14 261 0.0 6.4 0.00 0.00 0.00 31 1021.1
20260503184509 14 255 1.6 4.8 0.00 0.00 0.00 31 1021.3
20260503183006 14 275 3.2 6.4 0.00 0.00 0.00 35 1021.5
20260503181504 13 286 0.0 6.4 0.00 0.00 0.00 36 1021.5
20260503174617 12 292 1.6 4.8 0.00 0.00 0.00 37 1021.6
20260503173057 11 284 3.2 4.8 0.00 0.00 0.00 41 1021.7
20260503171552 11 269 1.6 6.4 0.00 0.00 0.00 42 1021.8
20260503100106 1 193 0.0 0.0 0.00 0.00 0.00 68 1020.3
20260503081547 1 193 0.0 3.2 0.00 0.00 0.00 66 1019.3
20260503071541 2 208 0.0 3.2 0.00 0.00 0.00 65 1018.8